Location: Lafig�re
(44.4503°N, 4.0357°E)
Time: 15:15:33
(UTC+00:00)

Vanguard 2 Rocket - Pass Details

Date: 31 January 2021
Orbit: 554 x 3325 km, 32.9° (Epoch: 06 March)

Event Time Altitude Azimuth Distance (km) Brightness Sun altitude
Rises 12:55:58 0° 238° (WSW) 7,303 12.2 26.9°
Reaches altitude 10° 13:01:20 10° 233° (SW) 6,197 12.1 26.6°
Maximum altitude 13:18:45 47° 169° (SSE) 3,197 10.8 25.6°
Drops below altitude 10° 13:30:16 10° 101° (E) 4,213 10.2 24.8°
Sets 13:33:09 0° 95° (E) 4,884 10.4 24.6°
